Showing default

PACE, 40022

Orbit data source: Space-Track

PACE, 40022 is a Taiwanese payload satellite in SSO that was launched on Thu, 19 Jun 2014 UTC via a DNEPR launch vehicle from the Orenburg, Russia (OREN). Payload-class satellites include a variety of spacecraft equipped with specific instruments for various scientific and technological missions. These include communications satellites like Starlink; space stations such as the ISS; scientific satellites like the Hubble; Earth observation satellites from companies like Planet Labs, Umbra, and HawkEye 360; GPS; miniature CubeSats for education and research; and military/defense satellites.

Loading next visibility...
Identifier
40022, 2014-033N
Orbit
SSO
Country
Flag of TWTW / TWN
Related business
Manufacturer
NCKU
Mission
Non-operational Commercial Technology
Bus & Motor
CUBESAT 2U, Unknown motor
Mass
2 kg wet, 2 kg dry
Launch date (UTC)
2014-06-19 (11 years ago)
Launch vehicle
DNEPR
Launch site
Orenburg, Russia (OREN)
Object type
Payload
Rocket body
Debris
Shape & HBR
Box, 0.1 m
Radar Cross Section
0.057 m², Small (<0.1 m²)

Expand to show TLE details & history
Last TLE update: 10 hours ago

TLE from 10 hours ago
0 PACE
1 40022U 14033N   25343.43862274  .00009431  00000-0  61126-3 0  9998
2 40022  98.1187 332.0503 0007727 128.6504 231.5415 15.08331017624405
Epoch: 2025-12-09T10:31Z
TLE epoch observation values (Epoch: 2025-12-09T10:31:37.004Z)
Latitude
-0.00007°
Longitude
95.72283°
Altitude
547.681 km
Speed
7.586 km/s
True Right ascension
22h 08m 12s
True Declination
0° 00' 00"
Sunlit
Object was in daylight at epoch
Visualization orbit readout
Latitude
Unknown
Longitude
Unknown
Altitude
Unknown
Speed
Unknown
Apparent Right ascension
Unknown
Apparent Declination
Unknown
Sunlit
N/A
Visualization observer readout
Local Sidereal Time
19:16:27
Azimuth
Unknown
Elevation
Unknown
Doppler factor
Unknown
Orbital elements
Apogee altitude
543.657 km
Perigee altitude
532.968 km
Semi-major axis
6,916.45 km
Eccentricity
0.00077
Inclination
98.1187°
RAAN
332.0503°
Arg. of periapsis
128.6504°
True anomaly
231.47221°
Mean anomaly
231.5415°
Eccentric anomaly
231.50685°
Mean motion
3.77327 °/min
Orbital period
95.41 mins
BSTAR
0.00061126
Loading maneuver chart data...
Computing Atmospheric mass density...
Loading historical data...
Loading historical data...
Loading historical data...
Loading historical data...
Loading historical data...
Loading historical data...
Loading historical data...

Documentation

Showing up to 5 results
|